Regional Weather Roundup
Issued by NWS Albany, NY

Home | Current Version | Previous Version | Text Only | Print | Product List | Glossary On
Versions: 1 2 3 4 5 6 7 8 9 10 11 12 13 14 15 16 17 18 19 20 21 22 23 24 25 26 27
000
ASUS41 KALY 240510
RWRALY

NEW YORK STATE HOURLY WEATHER ROUNDUP
NATIONAL WEATHER SERVICE ALBANY NY
1200 AM EST FRI FEB 24 2017

NOTE: "FAIR" INDICATES FEW OR NO CLOUDS BELOW 12,000 FEET WITH NO
SIGNIFICANT WEATHER AND/OR NO OBSTRUCTIONS TO VISIBILITY.

NYZ032-033-038>043-046>054-057>066-NYZ062>081-082-084-240600-
EAST


CITY           SKY/WX    TMP DP  RH WIND       PRES   REMARKS
ALBANY         PTCLDY    47  43  86 CALM      29.87R
GLENS FALLS    CLEAR     40  35  83 CALM      29.85R
POUGHKEEPSIE   LGT RAIN  50  48  93 CALM      29.87F
NEWBURGH       MOCLDY    55  54  94 CALM      29.90R
MONTGOMERY     CLOUDY    52  51  97 W3        29.87S
WHITE PLAINS   CLOUDY    49  46  90 CALM      29.90R
ISLIP          PTCLDY    48  46  93 S7        29.92S
NEW YORK CITY  PTCLDY    55  47  74 S8        29.90R
CENTRAL PARK   PTCLDY    63  51  65 VRB6      29.92R
$$

NYZ005>009-017-018-044>046-055-056-240600-
CENTRAL


CITY           SKY/WX    TMP DP  RH WIND       PRES   REMARKS
FULTON         CLEAR     38  36  92 CALM      29.89S
SYRACUSE       MOCLDY    44  40  85 N3        29.89R
ROME           CLOUDY    45  43  93 NW7       29.90S
ELMIRA         CLOUDY    49  44  83 E10       29.87R
BINGHAMTON     PTCLDY    53  49  86 CALM      29.87R
MONTICELLO     PTCLDY    50  50 100 CALM      29.91R
$$

NYZ026>034-041>043-087-240600-
NORTH


CITY           SKY/WX    TMP DP  RH WIND       PRES   REMARKS
WATERTOWN      CLOUDY    33  33 100 CALM      29.89S
FORT DRUM      NOT AVBL
OGDENSBURG     MOCLDY    42  36  81 NW3       29.89S
MASSENA        CLOUDY    42  37  82 W7        29.90R
SARANAC LAKE   CLOUDY    44  42  93 SW6       29.83R
PLATTSBURGH    CLOUDY    46  40  79 N8        29.84R
$$

NYZ001>004-010>016-019>021-085-240600-
WEST


CITY           SKY/WX    TMP DP  RH WIND       PRES   REMARKS
NIAGARA FALLS  CLEAR     39  34  82 E6        29.85F WCI  35
BUFFALO        PTCLDY    43  37  79 NE7       29.86S
DUNKIRK        CLOUDY    42  41  96 NE3       29.84S FOG
JAMESTOWN        N/A     48  46  93 SE3       29.82F VSB 3/4
WELLSVILLE     CLOUDY    52  50  93 SE5       29.85F FOG
ROCHESTER      CLOUDY    48  39  71 NE7       29.87F
PENN YAN       MOCLDY    46  39  76 E3        29.87S
$$

             KEY
       WCI = WIND CHILL INDEX
       VSB = VISIBILITY
       HX  = HEAT INDEX
$$




USA.gov is the U.S. government's official web portal to all federal, state and local government web resources and services.